Back to catalog

NAVSTAR 50

USA 156

AliveNavigationMEO
NORAD 26690·PAYLOAD·🇺🇸 United States

Launched Jan 30, 2001 from Cape Canaveral Space Force Station

Loading…

Next Passes (next 24 hours)

TLE

FreshSource: Space-Track

Epoch: Sep 14, 2026, 09:32 UTC

1 26690U 01004A   26257.39775913 -.00000094  00000-0  00000-0 0  9998
2 26690  55.2827  29.5103 0001585  29.8066 328.5161  1.91588174185244

Track NAVSTAR 50 in real time with AllMySat

Download on the App Store